[TLELIST] Archives

 

[list_settings.list_name] Current TLEs

January 21st 2010 PST

HST 1 20580U 90037B 10019.69889916 .00000396 00000-0 17520-4 0 5062 2 20580 028.4689 129.1520 0003437 065.5079 294.5917 15.00880532882415 ISS (ZARYA) 1 25544U 98067A 10020.40159722 .00012129 00000-0 74924-4 0 4083 2 25544 051.6453 269.7402 0006891 205.2482 137.3860 15.77598320640187 CXO 1 25867U 99040B 10020.95833333 -.00000135 00000-0 10000-3 0 4180 2 25867 066.4162 060.5648 7926075 275.2512 356.0076 00.37808043 5830 ____________________________________________________________________ These 2-Line ...Continue Reading

[list_settings.list_name] Current TLEs

January 20th 2010 PST

HST 1 20580U 90037B 10017.70399498 .00000382 00000-0 16507-4 0 5051 2 20580 028.4684 142.1741 0003416 042.9638 317.1280 15.00879493882113 ISS (ZARYA) 1 25544U 98067A 10019.28160499 .00012305 00000-0 76040-4 0 4021 2 25544 051.6459 275.5216 0006989 201.3630 256.1963 15.77570189640010 CXO 1 25867U 99040B 10018.33333333 -.00000195 00000-0 10000-3 0 4179 2 25867 066.4028 060.6809 7922549 275.2330 358.7121 00.37805905 5824 ____________________________________________________________________ These 2-Line ...Continue Reading

[list_settings.list_name] Current TLEs

January 19th 2010 PST

HST 1 20580U 90037B 10017.70399498 .00000382 00000-0 16507-4 0 5051 2 20580 028.4684 142.1741 0003416 042.9638 317.1280 15.00879493882113 ISS (ZARYA) 1 25544U 98067A 10018.33243215 .00012461 00000-0 77029-4 0 3956 2 25544 051.6463 280.4212 0007122 197.1701 266.2001 15.77546832639861 CXO 1 25867U 99040B 10018.33333333 -.00000195 00000-0 10000-3 0 4179 2 25867 066.4028 060.6809 7922549 275.2330 358.7121 00.37805905 5824 ____________________________________________________________________ These 2-Line ...Continue Reading

[list_settings.list_name] Current TLEs

January 18th 2010 PST

HST 1 20580U 90037B 10015.77558629 .00000386 00000-0 16743-4 0 5044 2 20580 028.4687 154.7677 0003272 021.8341 338.2467 15.00878663881826 ISS (ZARYA) 1 25544U 98067A 10017.49046296 .00017011 00000-0 10369-3 0 3883 2 25544 051.6465 284.7652 0007084 193.6856 164.8256 15.77538515639726 CXO 1 25867U 99040B 10015.70833333 -.00000318 00000-0 10000-3 0 4168 2 25867 066.3899 060.7765 7918915 275.2218 001.3945 00.37804891 5815 ____________________________________________________________________ These 2-Line ...Continue Reading

[list_settings.list_name] Current TLEs

January 17th 2010 PST

HST 1 20580U 90037B 10015.77558629 .00000386 00000-0 16743-4 0 5044 2 20580 028.4687 154.7677 0003272 021.8341 338.2467 15.00878663881826 ISS (ZARYA) 1 25544U 98067A 10016.36909998 .00018609 00000-0 11320-3 0 3810 2 25544 051.6465 290.5527 0007259 188.7908 277.1430 15.77505997639550 CXO 1 25867U 99040B 10015.70833333 -.00000318 00000-0 10000-3 0 4168 2 25867 066.3899 060.7765 7918915 275.2218 001.3945 00.37804891 5815 ____________________________________________________________________ These 2-Line ...Continue Reading

[list_settings.list_name] Current TLEs

January 16th 2010 PST

HST 1 20580U 90037B 10012.78322287 .00000366 00000-0 15235-4 0 5033 2 20580 028.4687 174.3033 0003229 348.3260 011.7260 15.00877270881376 ISS (ZARYA) 1 25544U 98067A 10015.35428362 .00018304 00000-0 11160-3 0 3745 2 25544 051.6465 295.7899 0007313 184.2959 274.6486 15.77466101639395 CXO 1 25867U 99040B 10015.70833333 -.00000318 00000-0 10000-3 0 4168 2 25867 066.3899 060.7765 7918915 275.2218 001.3945 00.37804891 5815 ____________________________________________________________________ These 2-Line ...Continue Reading

[list_settings.list_name] Current TLEs

January 15th 2010 PST

HST 1 20580U 90037B 10012.78322287 .00000366 00000-0 15235-4 0 5033 2 20580 028.4687 174.3033 0003229 348.3260 011.7260 15.00877270881376 ISS (ZARYA) 1 25544U 98067A 10014.47737641 .00013638 00000-0 84376-4 0 3701 2 25544 051.6453 300.3185 0007333 181.5029 334.2561 15.77421829639253 CXO 1 25867U 99040B 10013.04166667 -.00000448 00000-0 10000-3 0 4155 2 25867 066.3789 060.8787 7915203 275.2107 358.4044 00.37806221 5806 ____________________________________________________________________ These 2-Line ...Continue Reading

[list_settings.list_name] Current TLEs

January 14th 2010 PST

HST 1 20580U 90037B 10012.78322287 .00000366 00000-0 15235-4 0 5033 2 20580 028.4687 174.3033 0003229 348.3260 011.7260 15.00877270881376 ISS (ZARYA) 1 25544U 98067A 10013.39040669 .00060788 00000-0 36038-3 0 3639 2 25544 051.6472 305.9276 0007111 177.4454 281.6187 15.77422329639082 CXO 1 25867U 99040B 10013.04166667 -.00000448 00000-0 10000-3 0 4155 2 25867 066.3789 060.8787 7915203 275.2107 358.4044 00.37806221 5806 ____________________________________________________________________ These 2-Line ...Continue Reading

[list_settings.list_name] Current TLEs

January 13th 2010 PST

HST 1 20580U 90037B 10009.85735511 .00000291 00000-0 94489-5 0 5019 2 20580 028.4685 193.3983 0003260 317.8077 042.2266 15.00875675880934 ISS (ZARYA) 1 25544U 98067A 10012.37585845 .00012666 00000-0 78927-4 0 3575 2 25544 051.6463 311.1596 0007561 172.3695 281.6212 15.77342124638921 CXO 1 25867U 99040B 10013.04166667 -.00000448 00000-0 10000-3 0 4155 2 25867 066.3789 060.8787 7915203 275.2107 358.4044 00.37806221 5806 ____________________________________________________________________ These 2-Line ...Continue Reading

[list_settings.list_name] Current TLEs

January 12th 2010 PST

HST 1 20580U 90037B 10009.85735511 .00000291 00000-0 94489-5 0 5019 2 20580 028.4685 193.3983 0003260 317.8077 042.2266 15.00875675880934 ISS (ZARYA) 1 25544U 98067A 10011.37137664 .00011948 00000-0 74779-4 0 3502 2 25544 051.6469 316.3428 0007643 168.5695 337.7250 15.77312504638762 CXO 1 25867U 99040B 10010.41666667 -.00000462 00000-0 10000-3 0 4143 2 25867 066.3691 060.9934 7909616 275.1960 001.0876 00.37807078 5793 ____________________________________________________________________ These 2-Line ...Continue Reading
  • This mailing list is a public mailing list - anyone may join or leave, at any time.
  • This mailing list is announce-only.

International Space Station (ISS) / Hubble Space Telescope (HST) / Chandra X-Ray Observatory Orbital Data via EMAIL

Privacy Policy:

Private list